Home   Weather   43°42'N, 85°29'W   Past weeks
Flag for USA

Past Weather in 43°42'N, 85°29'W, USA — Yesterday and Last 2 Weeks

Now
69 °F

Scattered clouds.


Feels Like: 69 °F
Forecast: 86 / 67 °F
Wind: No wind

Location: Roben-Hood Airport

Current Time: Jul 17, 2019 at 7:01:39 am

Latest Report: Jul 17, 2019 at 6:18 am


Visibility: 10 mi

Pressure: 29.92 "Hg

Humidity: 95%

Dew Point: 68 °F

Location of 43°42'N, 85°29'WLocation

Past Weather in 43°42'N, 85°29'W — Graph

°F

43°42'N, 85°29'W Temperature Yesterday

Maximum temperature yesterday: 84 °F (at 4:35 pm)
Minimum temperature yesterday: 70 °F (at 11:55 pm)
Average temperature yesterday: 76 °F

High & Low Weather Summary for the Past Weeks

 TemperatureHumidityPressure
High89 °F (Jul 5, 3:16 pm)97% (Jul 5, 7:40 am)30.19 "Hg (Jul 5, 7:40 am)
Low51 °F (Jul 14, 5:56 am)31% (Jul 14, 4:39 pm)29.81 "Hg (Jul 10, 8:56 pm)
Average72 °F72%29.99 "Hg
* Reported Jul 2 6:15 am — Jul 17 6:00 am, 43°42'N, 85°29'W. Weather by CustomWeather, © 2019

Note: Actual official high and low records may vary slightly from our data, if they occured in-between our weather recording intervals... More about our weather records

Advertising

43°42'N, 85°29'W Weather History for the Previous 24 Hours

Scroll right to see more
 ConditionsComfort  
Time TempWeatherWind HumidityBarometerVisibility
6:00 am
Wed, Jul 17
68 °FClear.7 mph96%29.92 "Hg10 mi
5:36 am68 °FPassing clouds.No wind96%29.91 "Hg7 mi
4:58 am68 °FMostly cloudy.7 mph96%29.91 "Hg10 mi
4:35 am68 °FMostly cloudy.10 mph96%29.90 "Hg7 mi
4:16 am68 °FPassing clouds.7 mph96%29.90 "Hg10 mi
3:56 am67 °FPassing clouds.12 mph96%29.90 "Hg10 mi
3:36 am67 °FClear.No wind96%29.90 "Hg10 mi
3:18 am68 °FClear.No wind96%29.90 "Hg7 mi
2:55 am68 °FClear.No wind95%29.90 "Hg7 mi
2:36 am68 °FClear.3 mph96%29.90 "Hg7 mi
1:59 am68 °FClear.3 mph96%29.90 "Hg7 mi
1:36 am68 °FClear.No wind94%29.90 "Hg7 mi
1:16 am68 °FClear.No wind95%29.90 "Hg7 mi
12:58 am70 °FClear.No wind93%29.90 "Hg10 mi
12:35 am70 °FClear.No wind93%29.90 "Hg10 mi
12:16 am70 °FClear.No wind93%29.90 "Hg10 mi
11:55 pm
Tue, Jul 16
70 °FClear.6 mph92%29.91 "Hg10 mi
11:37 pm71 °FClear.No wind92%29.91 "Hg10 mi
11:19 pm72 °FClear.No wind92%29.91 "Hg10 mi
10:56 pm72 °FClear.No wind92%29.91 "Hg10 mi
10:36 pm73 °FClear.3 mph89%29.90 "Hg10 mi
10:17 pm73 °FClear.No wind89%29.90 "Hg10 mi
10:00 pm74 °FClear.No wind85%29.90 "Hg10 mi
9:35 pm76 °FClear.No wind83%29.89 "Hg10 mi
9:16 pm76 °FSunny.No wind83%29.89 "Hg10 mi
8:57 pm78 °FSunny.No wind77%29.88 "Hg10 mi
8:16 pm81 °FScattered clouds.3 mph68%29.88 "Hg10 mi
7:56 pm82 °FScattered clouds.6 mph66%29.88 "Hg10 mi
7:36 pm82 °FScattered clouds.7 mph64%29.87 "Hg10 mi
7:18 pm82 °FScattered clouds.5 mph65%29.87 "Hg10 mi
7:00 pm83 °FScattered clouds.7 mph63%29.87 "Hg10 mi
6:36 pm83 °FScattered clouds.7 mph62%29.88 "Hg10 mi
5:57 pm83 °FPartly sunny.7 mph62%29.88 "Hg10 mi
5:39 pm84 °FScattered clouds.8 mph59%29.88 "Hg10 mi
5:16 pm83 °FPartly sunny.8 mph62%29.88 "Hg10 mi
4:35 pm84 °FPartly sunny.8 mph59%29.89 "Hg10 mi
3:55 pm83 °FPartly sunny.12 mph62%29.90 "Hg10 mi
3:36 pm83 °FBroken clouds.10 mph62%29.91 "Hg10 mi
2:58 pm82 °FMostly cloudy.6 mph66%29.92 "Hg10 mi
2:35 pm81 °FBroken clouds.8 mph66%29.93 "Hg10 mi
2:16 pm80 °FCloudy.9 mph68%29.94 "Hg10 mi
1:55 pm80 °FMostly cloudy.9 mph69%29.94 "Hg10 mi
1:37 pm79 °FOvercast.8 mph72%29.95 "Hg10 mi
1:19 pm78 °FMostly cloudy.10 mph77%29.95 "Hg10 mi
12:56 pm76 °FMostly cloudy.6 mph81%29.96 "Hg10 mi
12:36 pm76 °FMostly cloudy.10 mph83%29.96 "Hg10 mi
12:16 pm74 °FOvercast.9 mph85%29.97 "Hg10 mi
11:59 am74 °FOvercast.7 mph87%29.96 "Hg7 mi
11:35 am73 °FLight rain. Overcast.7 mph86%29.96 "Hg5 mi
10:57 am74 °FOvercast.12 mph83%29.96 "Hg10 mi
10:39 am74 °FOvercast.10 mph79%29.96 "Hg10 mi
10:16 am75 °FOvercast.8 mph78%29.95 "Hg10 mi
9:36 am74 °FOvercast.6 mph77%29.95 "Hg10 mi
9:15 am74 °FOvercast.9 mph77%29.96 "Hg10 mi
8:36 am74 °FOvercast.9 mph76%29.96 "Hg10 mi
7:55 am73 °FScattered clouds.7 mph75%29.95 "Hg10 mi
7:36 am72 °FScattered clouds.5 mph75%29.94 "Hg10 mi
Weather by CustomWeather, © 2019

See weather overview